FW6809 Weather Reports


Display with metric or nautical units.
time (UTC)temp
F
wind
direction
speed
MPH
gust
MPH
rain 1hr
in
rain 24hr
in
rain mn
in
humidity
%
barometer
mb
20260503220055 64 0 0.0 2.0 0.00 0.00 0.00 48 1019.0
20260503214558 64 0 0.0 5.0 0.00 0.00 0.00 47 1018.9
20260503213056 64 0 0.0 2.0 0.00 0.00 0.00 47 1018.9
20260503211551 64 0 0.0 4.0 0.00 0.00 0.00 47 1019.1
20260503210053 64 149 0.0 7.0 0.00 0.00 0.00 47 1019.2
20260503204551 64 195 0.0 2.0 0.00 0.00 0.00 46 1019.4
20260503203108 64 0 0.0 3.0 0.00 0.00 0.00 41 1019.5
20260503201555 64 0 0.0 2.0 0.00 0.00 0.00 42 1019.9
20260503200049 64 0 0.0 2.0 0.00 0.00 0.00 46 1020.1
20260503194551 64 299 0.0 4.0 0.00 0.00 0.00 46 1020.4
20260503193047 65 0 0.0 1.0 0.00 0.00 0.00 46 1020.7
20260503191553 65 101 0.0 2.0 0.00 0.00 0.00 47 1020.6
20260503190057 65 102 0.0 2.0 0.00 0.00 0.00 47 1020.9
20260503184552 65 0 0.0 4.0 0.00 0.00 0.00 50 1021.1
20260503183050 65 0 0.0 2.0 0.00 0.00 0.00 51 1021.1
20260503181558 65 280 0.0 3.0 0.00 0.00 0.00 49 1021.1
20260503180055 64 197 1.0 4.0 0.00 0.00 0.00 51 1021.3
20260503174548 64 134 0.0 5.0 0.00 0.00 0.00 50 1021.3
20260503173052 63 0 0.0 5.0 0.00 0.00 0.00 54 1021.5
20260503171549 63 0 0.0 2.0 0.00 0.00 0.00 52 1021.8
20260503100106 35 0 0.0 0.0 0.00 0.00 0.00 98 1020.5
20260503081559 37 0 0.0 0.0 0.00 0.00 0.00 97 1019.6
20260503071559 38 0 0.0 0.0 0.00 0.00 0.00 97 1019.2
20260503060110 39 0 0.0 0.0 0.00 0.00 0.00 95 1019.1
20260503054603 40 0 0.0 0.0 0.00 0.00 0.00 95 1019.1
20260503053049 40 0 0.0 0.0 0.00 0.00 0.00 95 1019.2
20260503051549 40 0 0.0 0.0 0.00 0.00 0.00 95 1019.1
20260503050050 41 0 0.0 0.0 0.00 0.00 0.00 94 1019.2
20260503044548 41 0 0.0 0.0 0.00 0.00 0.00 94 1019.1
20260503043048 41 0 0.0 0.0 0.00 0.00 0.00 93 1019.0
20260503041550 42 0 0.0 0.0 0.00 0.00 0.00 93 1018.9
20260503040051 42 0 0.0 0.0 0.00 0.00 0.00 93 1018.7
20260503034550 42 0 0.0 0.0 0.00 0.00 0.00 92 1018.7
20260503033058 43 0 0.0 0.0 0.00 0.00 0.00 92 1018.7
20260503031551 43 0 0.0 0.0 0.00 0.00 0.00 91 1018.7
20260503030051 44 0 0.0 0.0 0.00 0.00 0.00 90 1018.5
20260503024549 45 0 0.0 0.0 0.00 0.00 0.00 89 1018.3
20260503023055 45 0 0.0 0.0 0.00 0.00 0.00 89 1018.0
20260503021549 45 0 0.0 0.0 0.00 0.00 0.00 89 1017.8
20260503020047 45 0 0.0 0.0 0.00 0.00 0.00 88 1017.6
20260503014546 46 0 0.0 0.0 0.00 0.00 0.00 88 1017.3
20260503013051 46 0 0.0 0.0 0.00 0.00 0.00 85 1017.2
20260503011549 47 0 0.0 0.0 0.00 0.00 0.00 83 1017.0
20260503010047 49 0 0.0 0.0 0.00 0.00 0.00 80 1016.8
20260503004614 51 0 0.0 0.0 0.00 0.00 0.00 76 1016.5
20260503003051 53 0 0.0 0.0 0.00 0.00 0.00 69 1016.4
20260503001550 55 0 0.0 0.0 0.00 0.00 0.00 61 1016.3
20260503000051 57 0 0.0 0.0 0.00 0.00 0.00 52 1015.9
20260502234559 58 0 0.0 4.0 0.00 0.00 0.00 50 1015.7
20260502233054 59 190 0.0 3.0 0.00 0.00 0.00 48 1015.6
20260502231607 60 0 1.0 7.0 0.00 0.00 0.00 48 1015.6
20260502230046 60 0 0.0 2.0 0.00 0.00 0.00 46 1015.4
20260502224549 61 186 1.0 6.0 0.00 0.00 0.00 45 1015.5
20260502223047 61 0 3.0 10.0 0.00 0.00 0.00 45 1015.5
20260502221545 61 120 0.0 4.0 0.00 0.00 0.00 43 1015.5